EHI
3 3 3 3 3 2 1 0 0 0 0 0 0 0 0 0 1 2 2 1 0 0 0 0 0 0 0 0 0 1 2 2 2 1 1 1 0 0
3 3 3 3 3 1 0 0 0 0 0 0 0 0 0 0 0 1 2 1 0 0 0 0 0 0 0 0 0 0 1 1 1 0 0 0 0 0
3 3 3 3 2 1 0 0 0 0 0 0 0 0 0 0 0 0 1 1 0 0 0 0 0 0 0 0 0 0 0 0 0 0 0 0 0 0
3 3 3 3 2 1 0 0 0 0 0 0 0 0 0 0 0 0 0 0 0 1 0 0 0 0 0 0 0 0 0 0 0 0 0 0 0 0
3 3 3 3 2 1 1 1 1 0 0 0 0 0 0 0 0 0 0 0 0 0 0 0 0 0 0 0 0 0 0 0 0 0 0 0 0 0
3 3 3 3 2 1 1 2 1 0 0 0 0 0 0 0 0 0 0 0 0 0 0 0 0 0 0 0 0 0 0 0 0 0 0 0 0 0
3 3 3 3 2 1 1 1 1 0 0 0 0 0 0 0 0 0 0 0 0 0 0 1 1 0 0 0 0 0 0 0 0 0 0 0 0 0
3 3 2 2 1 0 0 0 0 0 0 0 0 0 0 0 0 0 0 1 1 1 1 1 1 0 0 0 0 0 0 0 0 0 0 0 0 0
3 2 1 1 1 1 1 1 0 0 0 0 0 0 0 0 0 0 1 2 2 1 1 1 1 0 0 0 0 0 0 0 0 0 0 0 0 0
2 2 1 1 1 2 2 2 1 1 0 0 0 1 0 0 0 0 1 2 2 1 0 0 0 0 0 0 0 0 0 0 0 0 0 0 0 0
1 1 1 2 2 2 3 3 3 2 1 1 0 0 0 0 0 0 1 1 1 0 0 0 0 0 0 0 0 0 0 0 0 0 0 0 0 0
0 0 1 1 1 1 1 2 2 2 2 2 1 1 0 0 0 0 0 0 0 0 0 0 0 0 0 0 0 0 0 0 0 0 0 0 0 0
0 0 0 0 0 0 0 1 1 1 2 2 2 2 1 1 0 0 0 0 0 0 0 0 0 0 0 0 0 0 0 0 0 0 0 0 0 0
1 0 0 0 0 0 0 0 0 0 1 1 1 2 2 2 1 0 0 0 0 0 0 0 0 0 0 0 0 0 0 0 0 0 0 0 0 0
1 0 0 0 0 0 0 0 0 0 0 0 0 1 2 3 2 1 0 0 0 0 0 0 0 0 0 0 0 0 0 0 0 0 0 0 0 0
1 0 0 0 0 0 0 0 0 0 0 0 0 0 1 2 2 1 1 0 0 0 0 0 0 0 0 0 0 0 0 0 0 0 0 0 0 0
0 0 1 1 1 1 1 1 0 0 0 0 0 0 0 1 1 2 2 1 1 1 0 0 0 0 0 0 0 0 0 0 0 0 0 0 0 0
0 0 1 2 2 2 2 1 0 0 0 0 0 0 0 0 1 1 2 2 2 2 1 0 0 0 0 0 0 0 0 0 0 0 0 0 0 0
0 0 1 1 1 1 1 1 0 0 0 0 0 0 1 2 2 2 2 3 3 3 2 1 0 0 0 0 0 0 0 0 0 1 1 0 0 0
0 0 0 0 0 0 0 0 0 0 0 0 0 0 2 4 5 4 3 3 3 3 3 1 1 0 0 0 0 0 0 0 0 1 1 1 1 0
0 0 0 0 0 0 0 0 0 0 0 0 0 0 1 4 5 4 3 3 3 3 3 2 1 0 0 0 0 0 0 0 0 0 1 2 2 1
0 0 0 0 0 0 0 0 0 0 0 0 0 1 2 3 4 3 3 3 3 2 2 2 1 0 0 0 0 0 0 0 0 0 0 1 2 2
0 0 0 0 0 0 0 0 0 0 0 0 1 3 3 3 3 3 3 3 2 1 1 1 0 0 0 0 0 0 0 0 0 0 0 0 1 1
Wind_Speed
1 1 1 1 1 1 2 4 4 2 2 3 2 3 3 3 5 4 4 7 8 8 8 8 7 7 7 6 6 5 5 4 4 4 3 3 3 3
1 1 1 1 1 1 2 2 2 4 3 3 3 3 3 4 5 4 5 7 8 8 8 8 8 8 8 7 7 6 6 6 5 5 5 4 4 4
1 1 1 1 1 1 1 1 2 2 2 3 2 1 2 3 2 3 3 3 4 8 8 8 8 8 8 8 8 7 7 7 7 6 6 5 5 5
2 2 2 1 1 1 1 1 2 2 3 3 2 1 2 3 3 3 3 4 3 7 9 9 9 9 9 9 9 9 8 8 8 7 6 6 6 6
3 3 2 2 1 1 1 1 2 2 2 3 2 1 1 1 1 2 3 2 4 5 8 9 9 10 10 10 10 9 9 8 8 8 7 7 6 6
3 3 3 3 3 2 2 2 2 1 1 2 1 1 1 1 1 1 2 2 3 3 3 4 6 8 9 9 10 10 10 9 9 9 8 7 7 6
2 2 3 3 3 3 2 2 2 2 2 2 2 1 1 1 2 2 2 2 2 2 2 2 2 3 5 8 10 11 11 11 10 10 9 8 7 7
3 2 2 2 3 3 3 3 4 4 3 3 2 3 3 3 2 2 2 1 2 2 2 2 2 3 4 4 8 10 11 11 11 10 9 8 8 7
3 3 2 2 2 2 2 3 3 5 6 5 5 5 4 4 4 3 3 3 4 3 2 2 2 4 4 5 9 10 10 10 10 9 9 9 8 8
4 4 4 3 2 2 1 1 2 3 4 4 5 6 5 5 5 5 5 3 2 2 2 3 2 3 3 3 7 10 10 10 10 9 9 8 8 8
4 4 4 4 5 4 3 2 3 4 4 5 6 6 6 6 4 2 2 2 2 3 2 2 2 2 2 3 4 7 8 9 9 9 9 8 7 7
3 3 5 6 6 6 4 3 3 4 3 3 3 4 4 5 6 5 5 3 2 3 3 3 2 1 1 2 2 2 3 5 7 8 9 8 7 5
3 3 4 6 7 7 5 4 6 4 2 2 3 3 2 2 3 4 5 4 4 4 3 3 2 2 2 2 2 2 2 2 3 4 7 8 9 8
5 4 4 6 7 6 5 5 6 3 2 2 2 3 3 3 3 3 5 5 5 6 5 4 3 4 3 2 3 2 2 2 2 3 3 5 6 8
4 5 5 6 5 4 6 6 4 2 2 3 4 4 4 4 2 2 3 3 3 4 4 4 4 3 3 4 3 2 2 2 3 3 3 3 4 4
3 3 3 4 4 4 3 3 3 3 4 4 4 4 3 2 2 2 2 2 1 2 2 3 4 5 4 4 3 3 3 3 3 3 3 3 3 4
2 1 1 1 1 2 2 3 2 2 3 4 4 3 3 3 3 2 2 2 2 2 2 2 2 2 4 3 3 3 3 3 4 4 3 3 4 5
4 2 3 3 4 4 4 3 3 4 4 4 4 4 4 4 3 2 2 2 3 3 3 2 1 0 1 2 4 4 4 4 3 4 4 4 4 4
3 3 4 4 4 4 4 4 4 5 4 4 4 4 4 4 3 3 3 2 3 3 4 3 3 3 3 4 4 4 4 3 3 3 3 4 4 4
3 4 4 4 4 4 4 4 4 4 4 4 4 4 4 4 4 4 4 4 4 4 3 3 4 4 6 5 3 3 4 4 3 3 3 3 3 3
4 4 4 4 4 4 4 4 4 4 4 4 4 4 4 3 4 4 4 5 4 4 5 5 6 6 3 1 1 2 3 5 6 4 3 2 2 2
4 4 4 4 4 4 3 3 3 4 4 4 4 4 3 3 4 5 4 4 4 4 5 4 2 2 2 3 3 3 3 2 3 4 5 5 5 5
4 4 3 3 3 3 3 3 3 3 3 3 3 3 3 3 4 4 4 4 4 4 3 3 2 2 3 3 3 3 3 3 2 2 3 4 5 6
Wind_Direction
193 208 222 251 192 184 169 162 158 183 251 252 244 237 215 205 207 198 204 211 211 213 212 211 210 209 207 206 208 210 210 209 210 215 216 218 222 228
196 179 230 238 211 218 184 177 165 166 210 239 233 230 213 212 202 198 209 208 215 217 215 214 214 212 210 209 212 213 212 213 212 214 218 221 226 233
235 192 212 198 210 244 203 182 178 161 188 252 249 227 199 219 205 207 214 211 218 220 218 217 220 220 216 215 215 216 217 218 218 218 221 224 226 230
223 196 210 197 216 236 200 200 202 189 174 213 248 220 217 215 204 210 216 217 218 221 220 221 222 223 220 220 220 219 220 221 221 221 222 225 226 229
204 199 214 189 220 245 226 213 220 215 177 179 224 225 231 212 183 231 232 232 226 225 224 227 226 225 225 224 221 218 219 220 221 220 220 221 222 223
209 207 208 196 206 221 232 223 210 198 184 180 213 232 236 237 163 207 248 246 244 236 224 220 224 228 227 224 223 220 219 221 221 220 218 216 216 217
227 222 221 208 205 207 210 209 196 193 193 195 215 226 233 200 212 208 219 246 265 231 216 235 218 228 231 231 228 223 220 220 219 217 214 212 213 216
218 232 233 213 218 215 215 211 198 196 203 202 207 212 227 221 210 201 187 188 269 243 189 243 207 233 239 229 229 224 221 220 218 215 211 211 211 213
206 216 232 233 216 223 240 247 246 233 210 198 204 216 214 213 195 200 202 209 230 229 178 245 231 241 241 240 230 224 221 219 216 211 208 210 210 210
213 211 212 226 230 202 217 274 279 271 246 219 214 222 220 212 199 199 203 219 262 253 177 215 234 244 257 248 239 227 220 216 211 209 209 210 208 208
225 217 209 211 221 193 183 227 275 288 284 257 237 232 224 213 193 159 170 177 257 262 203 188 224 249 264 258 248 228 222 216 211 208 207 207 206 205
244 233 219 216 217 196 189 199 239 262 280 304 280 262 243 231 208 192 191 196 221 251 221 181 207 186 273 268 248 229 218 221 213 210 208 204 195 191
223 235 238 229 222 215 207 210 231 238 248 253 268 270 264 246 229 212 201 196 207 235 214 173 186 183 198 257 268 233 205 210 204 212 213 210 201 191
218 227 235 231 226 225 226 237 240 236 238 253 268 266 259 254 244 226 216 214 217 224 214 184 192 194 191 219 252 255 229 213 196 205 210 209 213 214
224 227 239 237 228 233 240 241 232 216 219 240 250 254 248 246 245 244 238 223 230 237 220 204 199 199 192 209 223 219 230 230 202 199 205 203 205 201
240 237 238 243 237 242 253 247 230 219 218 232 247 256 257 250 238 229 228 217 228 272 255 222 209 197 208 216 208 220 210 208 207 206 202 215 214 208
186 176 224 227 237 257 263 259 246 237 238 244 244 252 250 244 249 237 219 210 216 242 266 273 243 210 206 197 209 227 224 221 213 203 198 221 230 218
159 193 216 218 222 231 239 247 242 240 240 239 238 239 239 236 244 240 217 209 223 232 237 239 213 338 324 265 216 218 226 223 218 204 195 211 239 233
179 213 221 223 227 230 232 235 239 240 236 232 234 237 239 237 233 229 223 225 232 235 235 223 206 198 228 254 258 223 211 220 212 211 210 209 227 235
215 221 228 230 230 232 234 237 245 247 240 238 237 236 234 234 233 230 224 226 231 235 238 230 221 217 221 233 241 246 213 201 206 219 226 227 240 255
229 232 235 237 239 238 237 238 241 245 245 239 239 237 235 233 236 234 230 232 230 231 236 241 239 229 222 158 214 262 251 218 204 204 204 206 228 235
241 240 242 242 240 240 240 242 247 250 249 245 242 236 231 229 234 232 227 228 231 234 242 250 246 199 182 201 228 245 257 265 241 223 208 196 188 201
245 243 241 243 241 237 235 235 237 246 245 245 244 238 230 233 238 231 226 227 231 236 240 243 235 212 213 215 224 238 245 242 227 224 255 263 239 237